Simultaneous Nadir Overpasses (SNOs) Predictions

Prediction of SNOs between GOES-14 and NOAA-20 Satellite Orbit:

Table of predicted SNOs for the next 14.0 days since TLE Epoch: 1/28/2023
Index Date Time (GOES-14) GOES-14 Lat,Lon NOAA-20 Lat,Lon Distance(km) Time Diff (sec)
1 01/28/2023 20:14:33 0.04,-104.35 0.39,-102.77 180.24 80
2 01/30/2023 08:36:21 -0.03,-104.75 0.73,-108.05 377.21 80
3 01/31/2023 08:20:17 -0.03,-104.76 -0.30,-103.52 140.92 80
4 02/02/2023 20:20:47 0.02,-104.42 0.04,-104.27 16.41 80
5 02/05/2023 08:23:51 -0.01,-104.81 0.04,-105.02 23.86 80
6 02/06/2023 08:07:46 -0.01,-104.83 -1.00,-100.49 494.38 80
7 02/07/2023 20:29:40 0.01,-104.49 -0.28,-105.77 146.75 80
8 02/08/2023 20:08:16 0.02,-104.49 0.76,-101.24 370.80 80
9 02/10/2023 08:30:04 -0.02,-104.87 0.35,-106.52 188.08 80
